Zurück zum Katalog

KHORS NO. 4

AktivAmateurfunkSSO
NORAD 61754·PAYLOAD·🇷🇺 Russia
Dieser Satellitenname wurde noch nicht durch offizielle Quellen bestätigt.

Gestartet Nov 4, 2024 von Vostochny Cosmodrome

Loading…

Nächste Überflüge (nächste 24 Stunden)

TLE

AktuellSource: Space-Track

Epoche: Sep 14, 2026, 22:19 UTC

1 61754U 24199V   26257.93016234  .00085949  00000-0  72694-3 0  9994
2 61754  97.2726 137.8637 0001421 317.7619  42.3533 15.69469551151676

Verfolge KHORS NO. 4 in Echtzeit mit AllMySat

Download on the App Store